Location: Morning Glory
(31.5701°N, 106.2158°W)
Time: 00:19:13
(UTC+00:00)

Tiangong - Visible Passes

Search period start: 01 December 2023 00:00
Search period end: 11 December 2023 00:00
Orbit: 373 x 384 km, 41.5° (Epoch: 30 November)

Date Brightness Start Highest point End Pass type
(mag) Time Alt. Az. Time Alt. Az. Time Alt. Az.
01 Dec 0.0 01:52:37 10° NW 01:53:59 23° NW 01:53:59 23° NW visible
02 Dec -1.4 00:51:07 10° NW 00:54:04 35° NNE 00:55:47 19° E visible
03 Dec -1.8 01:25:58 10° WNW 01:29:04 63° SSW 01:29:52 43° SSE visible
04 Dec -2.1 00:24:10 10° NW 00:27:17 60° NNE 00:30:23 10° ESE visible
04 Dec 0.7 02:01:50 10° WSW 02:03:42 15° SW 02:04:11 15° SSW visible
05 Dec -0.3 00:59:09 10° W 01:02:00 31° SW 01:04:49 10° SSE visible
07 Dec 0.9 00:32:23 10° W 00:34:31 17° SW 00:36:38 10° S visible
